Weather Roundup
Issued by NWS Springfield, MO

Home | Current Version | Previous Version | Text Only | Print | Product List | Glossary On
Versions: 1 2 3 4 5 6 7 8 9 10 11 12 13 14 15 16 17 18 19 20 21 22 23 24 25 26 27 28 29 30 31 32 33 34 35 36 37 38 39 40 41 42 43 44 45 46 47 48 49 50
000
NZUS99 KSGF 271157
HRRSGF

HOURLY WEATHER
NATIONAL WEATHER SERVICE SPRINGFIELD MO
700 AM CDT THU APR 27 2017

......SGF CWA......

CITY           SKY/WX    TMP DP  RH WIND       PRES   REMARKS
SPRINGFIELD    CLEAR     41  38  89 W7        29.74R
6HR MIN TEMP:  40; 6HR MAX TEMP:  45;

JOPLIN         CLEAR     38  38 100 S5        29.77R WCI  34
6HR MIN TEMP:  37; 6HR MAX TEMP:  44;

ROLLA          CLOUDY    42  41  96 W7        29.68R
6HR MIN TEMP:  42; 6HR MAX TEMP:  44; 6HR PCP:  0.01;

BRANSON        CLEAR     39  39 100 CALM      29.77R

......SURROUNDING SGF CWA......

CITY           SKY/WX    TMP DP  RH WIND       PRES   REMARKS
CHANUTE        CLEAR     36  34  92 CALM      29.75R
PARSONS        CLEAR     36  34  92 CALM      29.77R
COFFEYVILLE    CLEAR     38  38 100 CALM      29.77R
EMPORIA        CLEAR     34  33  96 W3        29.74R
HARRISON AR    CLEAR     41  39  93 W7        29.76R

......KANSAS AND MISSOURI......

CITY           SKY/WX    TMP DP  RH WIND       PRES   REMARKS
KANSAS CTY INT MOCLDY    42  33  70 W8        29.69R
SEDALIA        CLOUDY    43  39  86 W9G18     29.71R
ST JOSEPH      CLOUDY    42  34  73 W6        29.69R
ST LOUIS       CLOUDY    48  42  80 W8        29.65R
SPIRIT OF STL  CLOUDY    46  44  93 W10       29.65R
WICHITA        PTCLDY    36  33  89 CALM      29.72R
TOPEKA         CLEAR     37  35  92 W3        29.72R
OLATHE         CLEAR     40  34  79 W3        29.70S

......TENNESSEE......

CITY           SKY/WX    TMP DP  RH WIND       PRES   REMARKS
MEMPHIS        NOT AVBL
NASHVILLE      PTSUNNY   64  61  90 SW8       29.68R

......ARKANSAS.......

CITY           SKY/WX    TMP DP  RH WIND       PRES   REMARKS
FAYETTEVILLE   FOG       37  37 100 CALM      29.77S VSB<1/4
FT SMITH       CLEAR     45  42  89 SW5       29.79R
LITTLE ROCK    MOCLDY    45  45 100 W5        29.79R

......OKLAHOMA.......

CITY           SKY/WX    TMP DP  RH WIND       PRES   REMARKS
TULSA          PTCLDY    43  41  93 CALM      29.77R
PONCA CITY     CLEAR     38  35  89 S3        29.76R
MCALESTER      PTCLDY    41  40  96 E3        29.77S
OKLAHOMA CITY  MOCLDY    42  40  92 S6        29.73F

......IOWA............

CITY           SKY/WX    TMP DP  RH WIND       PRES   REMARKS
DES MOINES     CLOUDY    37  30  75 NW15      29.61R WCI  28
QUAD CITIES    LGT RAIN  39  35  86 W17       29.53R WCI  30

......ILLINOIS........

CITY           SKY/WX    TMP DP  RH WIND       PRES   REMARKS
QUINCY         CLOUDY    42  39  89 W14       29.61R
CHICAGO        LGT RAIN  52  50  93 W17G24    29.31R FOG




USA.gov is the U.S. government's official web portal to all federal, state and local government web resources and services.